Location: L�Adrech
(44.2500°N, 6.4167°E)
Time: 21:02:39
(UTC+00:00)

NOSS 3-1 (C) - Pass Details

Date: 07 June 2020
Orbit: 752 x 1456 km, 63.4° (Epoch: 15 June)

Event Time Altitude Azimuth Distance (km) Brightness Sun altitude
Rises 01:07:58 0° 322° (NW) 3,958 7.1 -19.5°
Reaches altitude 10° 01:10:30 10° 323° (NW) 3,089 6.5 -19.4°
Maximum altitude 01:18:07 90° 125° (SE) 1,315 4.1 -18.8°
Drops below altitude 10° 01:26:50 10° 145° (SE) 3,510 6.1 -18.1°
Sets 01:29:52 0° 146° (SE) 4,521 6.7 -17.8°
